Flag Weather past 2 weeks in Inuvik, Northwest Territories, Canada

Now
16 °F

Light freezing rain. Ice fog.


Feels Like: 16 °F
Forecast: 18 / 23 °F
Wind: 2 mph from North

Location: Inuvik

Current Time: Oct 30, 2014 at 7:12:41 AM

Latest Report: Oct 30, 2014 at 6:00 AM


Visibility: 0 mi

Pressure: 29.87 "Hg

Humidity: 93%

Dew point: 14 °F

Location of InuvikLocation

Historic Weather in Inuvik — Graph

°F

Inuvik temperature yesterday

Maximum temperature yesterday: 14 °F (at 2:00 AM)
Minimum temperature yesterday: -2 °F (at 7:00 AM)
Average temperature yesterday: 9 °F

Past Weeks' High & Low Weather Summary

 TemperatureHumidityPressure
High28 °F (Oct 15, 6:00 PM)100% (Oct 16, 10:00 AM)30.01 "Hg (Oct 16, 10:00 AM)
Low-2 °F (Oct 29, 7:00 AM)63% (Oct 28, 3:00 PM)29.53 "Hg (Oct 20, 4:00 PM)
Average17 °F87%29.84 "Hg
* Reported Oct 15 6:00 AM — Oct 30 6:00 AM, Inuvik, Weather by CustomWeather, © 2014

Note: Actual official high and low records may vary slightly from our data, if they occured in-between our weather recording intervals... More about our weather records

Advertising

Inuvik weather history for previous 24 hours

 ConditionsComfort  
Time TempWeatherWind HumidityBarometerVisibility
6:00 AM
Oct 30
16 °FLight freezing rain. Ice fog.2 mph93%29.87 "Hg1 mi
5:00 AM16 °FLight freezing rain. Ice fog.3 mph93%29.88 "Hg1 mi
4:00 AM16 °FLight freezing rain. Ice fog.3 mph86%29.88 "Hg1 mi
3:00 AM16 °FLight freezing rain. Ice fog.3 mph86%29.87 "Hg1 mi
2:47 AM16 °FLight freezing rain. Ice fog.2 mph86%29.88 "Hg1 mi
2:00 AM14 °FLight freezing rain. Ice fog.2 mph92%29.88 "Hg1 mi
1:00 AM14 °FLight freezing rain. Ice fog.2 mph92%29.87 "Hg1 mi
12:00 AM14 °FLight freezing rain. Ice fog.2 mph92%29.87 "Hg1 mi
11:00 PM
Oct 29
14 °FIce fog.2 mph92%29.87 "Hg1 mi
10:00 PM14 °FLight freezing rain. Ice fog.No wind92%29.87 "Hg1 mi
9:00 PM12 °FLight freezing rain. Ice fog.2 mph92%29.89 "Hg15 mi
8:00 PM12 °FLight freezing rain. Ice fog.2 mph92%29.89 "Hg1 mi
7:00 PM12 °FIce fog.3 mph92%29.88 "Hg1 mi
6:00 PM12 °FIce fog.2 mph92%29.88 "Hg2 mi
5:00 PM12 °FIce fog.2 mph92%29.88 "Hg2 mi
4:00 PM12 °FIce fog.No wind92%29.88 "Hg1 mi
3:00 PM10 °FIce fog.2 mph92%29.89 "Hg1 mi
2:53 PM10 °FIce fog.No wind92%29.89 "Hg1 mi
2:00 PM10 °FIce fog.No wind92%29.89 "Hg1 mi
1:00 PM9 °FIce fog.2 mph85%29.88 "Hg1 mi
12:00 PM5 °FLow clouds.No wind85%29.88 "Hg10 mi
11:00 AM-2 °FPassing clouds.No wind84%29.87 "Hg15 mi
10:00 AM0 °FPassing clouds.3 mph84%29.86 "Hg15 mi
9:00 AM3 °FPassing clouds.2 mph85%29.86 "Hg15 mi
8:00 AM1 °FClear.No wind85%29.86 "Hg15 mi
7:00 AM-2 °FClear.2 mph84%29.85 "Hg15 mi
Weather by CustomWeather, © 2014

See weather overviewHow to use our weather pages